Theta_e
327 317 313 312 303 300 295 298 302 302 303 308 310 306 304 308 306 296 322 335 338 340 342 344 346 345 343 341 340 340 340 339 339 341 341 339 338 336 335 334 337 339 339 337 337 337 339 335 334
317 316 313 305 298 293 295 299 301 303 309 312 312 311 309 306 318 320 325 335 340 341 342 342 344 346 343 341 340 339 338 338 338 341 340 339 337 335 334 335 335 339 339 337 336 336 336 336 333
310 314 308 301 295 294 296 301 302 306 310 307 311 314 309 310 319 324 328 338 340 340 341 341 344 346 343 342 341 339 338 338 337 337 338 337 337 336 335 336 337 336 335 334 335 337 336 337 333
308 310 306 299 295 298 301 303 304 307 306 311 312 309 313 320 323 327 336 338 337 338 340 340 344 346 344 343 341 340 338 338 338 337 336 338 338 337 335 334 333 332 333 332 331 336 339 336 334
306 305 299 296 297 300 302 304 306 305 305 308 310 306 309 322 326 332 335 337 334 336 338 339 343 345 345 343 342 341 340 337 335 337 337 337 337 339 336 334 332 331 331 330 329 332 334 335 334
300 302 296 294 296 300 302 304 305 302 307 309 310 309 310 322 325 328 335 333 336 335 337 339 337 340 343 344 343 342 340 337 336 336 339 339 337 338 337 335 333 331 330 331 329 328 328 330 331
296 296 294 294 296 299 302 305 302 305 308 308 313 306 310 316 325 328 331 333 335 335 335 336 337 336 334 338 339 340 340 338 338 338 338 338 338 339 339 339 337 334 332 332 331 330 328 327 327
296 295 291 291 296 298 302 303 304 307 305 312 314 306 304 318 326 327 327 330 331 333 334 334 334 335 334 334 332 333 335 335 335 334 333 331 331 332 331 331 336 337 337 335 336 335 332 331 330
296 289 287 291 297 299 301 300 302 304 306 306 310 312 314 323 325 324 321 323 326 331 332 332 332 332 333 333 332 328 330 331 331 330 327 326 325 324 324 325 329 333 335 337 337 337 335 332 330
292 288 289 292 299 299 300 300 302 303 303 303 306 312 318 323 322 321 321 321 322 325 329 330 330 331 331 335 333 330 331 329 329 328 326 325 324 323 324 321 323 326 328 331 335 336 333 328 323
293 288 291 298 303 303 300 299 300 302 300 305 308 312 318 319 320 321 320 321 322 322 326 330 330 330 330 331 331 329 329 329 329 330 327 325 325 323 322 320 319 320 320 321 324 322 321 321 321
293 296 298 302 303 302 299 301 299 302 302 304 310 316 317 318 319 320 320 320 320 322 325 328 329 329 329 330 330 329 329 328 328 328 328 327 328 327 327 322 323 322 322 322 322 321 320 320 319
294 295 302 302 302 301 303 299 299 300 301 303 312 314 315 317 317 317 320 319 318 313 317 322 325 327 329 329 329 328 328 328 328 328 328 328 327 328 328 326 325 324 324 323 322 322 322 321 320
297 297 298 301 300 300 300 299 300 300 301 304 309 310 310 314 315 309 305 305 306 308 306 311 313 317 326 327 327 328 327 328 327 328 328 329 329 330 330 329 328 326 325 325 324 323 323 323 322
297 293 294 297 299 298 297 295 297 298 300 301 302 302 304 304 303 301 301 303 304 306 309 310 312 312 313 319 324 326 327 328 327 328 330 331 331 331 330 330 329 329 328 327 326 325 324 323 323
292 290 286 291 297 297 296 290 295 295 295 298 297 299 300 300 299 301 302 303 304 305 305 306 308 307 308 309 314 311 318 324 325 326 331 332 332 332 331 330 330 331 330 329 329 327 326 325 323
288 281 284 289 295 294 293 289 295 295 295 295 295 295 298 298 299 299 299 299 300 300 301 302 303 302 304 307 312 313 319 321 323 322 323 321 321 326 328 326 328 328 329 328 327 326 326 324 324
283 282 283 284 288 291 288 290 293 293 293 294 295 296 295 297 298 298 297 297 297 297 298 299 300 299 301 306 313 316 318 314 310 309 310 311 314 318 318 318 320 323 327 324 322 322 324 323 323
287 284 282 284 289 290 289 288 292 295 293 294 294 294 296 296 298 296 295 294 295 294 295 296 296 296 298 302 309 315 315 309 304 303 302 303 304 308 311 310 311 315 314 313 312 314 319 320 319
287 284 284 288 292 290 288 289 292 294 294 296 296 294 296 295 295 295 293 292 292 291 292 293 293 293 294 297 304 313 309 303 301 299 297 298 299 301 302 305 305 306 310 308 307 308 308 313 312
286 285 284 284 289 288 285 284 286 289 293 295 296 296 295 296 295 293 292 290 290 289 289 290 290 291 292 294 306 307 307 305 302 297 294 294 296 297 299 299 300 301 302 299 300 300 301 301 304
284 290 289 288 284 280 285 276 283 286 288 291 292 294 293 294 293 292 290 289 288 287 288 288 289 289 291 292 300 305 302 297 295 293 292 292 293 293 294 294 294 295 296 295 296 297 296 298 298
287 290 289 288 284 281 281 279 282 283 286 287 289 292 292 293 292 291 289 289 288 287 286 286 287 287 288 289 292 295 294 294 293 291 289 289 290 290 290 291 291 292 293 292 292 292 292 293 292
293 290 287 285 284 275 281 280 276 280 285 287 290 290 291 290 289 288 288 288 286 286 286 286 286 285 286 287 287 289 290 290 289 287 286 286 286 287 288 289 289 290 290 290 290 290 290 290 290
289 285 274 274 276 273 280 279 279 284 287 289 290 289 289 289 288 287 286 285 285 285 286 287 285 283 284 284 284 285 285 285 285 285 284 284 284 285 285 286 286 287 288 288 289 288 288 288 287
286 283 275 270 272 274 281 277 282 287 289 291 292 290 289 288 288 287 287 286 286 285 285 284 284 282 282 282 282 283 283 283 283 283 283 283 283 284 285 285 285 285 286 287 287 287 287 286 286
287 285 285 278 271 273 277 281 285 288 288 288 288 289 288 288 287 287 287 286 286 285 284 284 283 282 282 282 281 281 282 282 281 282 282 282 283 285 283 283 283 283 284 285 285 285 285 284 284
289 290 282 276 267 268 274 276 279 283 285 286 287 288 289 288 288 288 288 287 285 284 283 282 282 282 281 281 281 281 281 281 281 282 281 282 283 283 282 282 282 282 283 283 284 283 283 282 283
288 285 285 283 277 272 270 275 282 283 285 287 288 289 289 289 289 289 288 287 286 284 282 282 281 281 280 280 280 280 280 280 281 280 281 281 282 281 281 281 281 281 281 282 282 281 281 281 280
288 286 285 277 277 276 276 277 286 285 286 289 289 290 289 290 291 290 289 288 285 284 282 281 281 281 281 280 280 280 280 280 279 279 280 281 280 281 281 281 281 280 280 281 281 280 280 279 278
Wind_Speed
9 5 2 6 6 6 1 2 0 3 1 1 3 3 5 3 3 3 2 7 7 8 6 6 10 10 9 8 8 7 6 5 5 5 8 7 7 7 7 7 8 8 10 9 8 7 8 8 10
5 2 5 3 6 4 3 3 5 3 5 6 5 3 4 2 1 1 3 6 6 8 6 6 9 10 9 8 7 7 6 5 4 7 8 7 6 7 7 7 5 8 9 9 8 7 5 7 8
2 3 5 5 4 5 5 4 4 4 5 1 4 4 1 1 1 6 1 9 7 6 6 6 9 10 9 8 7 7 6 5 4 4 4 5 5 6 6 6 7 7 7 6 6 7 4 6 7
4 5 5 6 3 1 4 6 5 7 3 3 3 6 2 2 4 5 8 8 7 6 6 7 10 10 10 9 7 6 5 4 2 2 3 4 3 7 4 4 3 4 5 5 5 6 8 7 6
5 4 5 4 1 1 2 5 7 6 4 2 1 3 1 4 2 8 9 8 8 6 5 6 9 9 9 9 7 6 5 3 3 2 3 3 3 5 4 2 2 2 3 3 4 3 4 4 4
5 3 5 3 2 0 3 6 7 4 4 4 5 5 2 3 4 5 6 7 6 7 5 5 6 7 8 7 6 5 4 3 3 3 3 4 3 3 3 4 3 2 1 1 1 1 0 1 2
6 4 4 5 4 2 5 8 7 6 7 5 9 6 2 2 3 5 6 5 5 5 5 4 4 5 6 6 7 6 5 4 3 2 1 1 1 1 2 4 4 4 4 3 3 3 3 3 4
5 5 3 1 5 4 5 5 5 6 4 3 4 6 4 5 7 6 5 4 4 5 5 5 5 5 5 4 6 6 5 4 3 3 2 2 1 2 3 4 5 6 7 6 5 5 5 5 6
3 6 3 4 5 3 2 3 0 1 6 1 5 5 4 9 9 6 4 3 2 3 5 5 5 5 5 4 4 6 6 6 5 3 4 3 2 2 3 4 4 6 7 6 7 7 7 6 6
5 4 8 4 3 1 2 2 7 4 4 0 1 1 4 8 7 8 6 6 4 5 5 5 5 5 5 3 4 4 4 4 4 4 3 2 3 3 3 5 5 5 5 7 8 7 7 5 3
2 4 3 1 1 2 2 1 2 7 3 7 12 7 7 6 7 8 6 6 6 4 3 7 6 5 6 4 3 2 2 3 3 6 5 4 3 3 3 2 3 3 4 3 3 3 2 3 3
2 1 1 2 3 3 2 3 3 4 5 5 8 7 7 8 9 9 8 7 5 6 6 6 6 6 6 3 4 4 3 3 3 4 5 4 3 3 4 3 3 3 2 4 3 2 3 5 5
2 2 2 2 4 3 2 2 2 4 4 4 8 6 8 7 7 5 6 5 4 6 6 6 4 6 5 6 4 4 5 4 4 4 4 4 4 4 3 3 3 3 3 3 3 3 4 4 4
2 2 1 2 1 2 1 1 1 1 3 6 7 7 5 6 7 4 4 5 5 4 1 2 3 2 4 5 5 5 3 4 3 4 5 6 4 4 4 4 4 4 4 4 4 4 4 4 4
2 2 3 2 1 0 1 3 6 3 4 5 5 3 4 4 4 2 2 3 1 3 4 6 5 6 6 3 3 3 3 4 4 4 4 5 5 6 5 3 3 5 4 5 4 4 4 4 4
4 5 2 2 2 1 4 7 1 1 3 4 3 4 5 0 4 4 4 5 6 6 6 5 5 6 6 5 3 2 2 2 3 3 1 4 5 5 4 3 3 2 3 3 3 3 4 4 4
5 4 4 7 5 2 4 6 5 4 5 7 7 6 6 3 2 4 5 5 6 6 6 6 6 6 6 5 4 4 5 4 4 5 4 6 5 4 1 2 3 3 3 2 2 2 2 3 2
6 3 2 4 1 1 1 10 7 4 2 6 5 5 6 6 5 4 4 5 5 6 6 5 5 6 6 3 2 3 5 5 5 5 6 7 5 6 4 4 4 3 2 2 3 2 2 3 3
6 4 3 3 3 2 6 8 11 10 4 8 8 8 7 8 5 4 3 3 4 7 7 7 6 7 5 3 2 2 3 3 5 5 8 7 6 7 6 4 4 5 4 3 4 3 3 2 3
3 3 3 1 2 3 5 10 11 8 8 9 11 10 10 6 6 5 4 4 5 4 6 6 6 6 4 2 2 2 3 4 5 4 6 7 8 7 6 6 5 5 3 4 5 4 3 2 5
3 5 3 2 4 2 6 8 6 5 5 5 8 9 7 13 12 8 6 4 4 6 6 6 6 6 5 5 1 4 5 3 2 3 4 6 7 7 8 7 5 5 4 4 4 4 4 3 3
3 5 3 2 3 3 4 7 7 5 8 6 6 6 7 8 6 6 6 4 4 4 4 5 6 7 6 7 3 1 2 3 2 3 2 3 7 8 8 6 5 5 4 5 4 4 3 2 3
6 5 6 2 3 2 1 2 9 3 7 7 2 2 2 5 10 9 7 6 5 5 4 4 6 7 7 7 5 3 5 3 3 3 4 5 6 8 6 6 6 6 4 4 6 5 6 4 3
7 6 7 5 3 3 6 6 6 4 4 4 1 2 5 7 8 7 5 5 4 4 4 5 6 6 6 6 7 7 6 5 4 3 3 3 3 5 7 6 6 5 5 5 4 5 6 5 5
3 6 3 4 1 7 2 3 10 8 6 4 4 4 5 6 7 6 6 4 3 3 3 3 4 4 5 6 7 7 6 6 6 4 3 4 3 4 6 5 6 4 5 5 5 6 7 6 5
4 6 6 7 5 4 2 7 7 3 4 5 5 8 6 5 5 6 5 4 2 2 2 2 3 4 6 6 6 5 6 4 4 4 3 3 3 3 4 5 5 6 6 5 5 4 5 6 6
5 4 4 6 2 2 4 7 9 2 5 5 7 7 6 6 5 5 4 4 5 4 3 2 3 4 4 5 5 6 5 6 4 5 4 3 3 3 5 5 6 6 6 6 6 5 6 7 7
6 9 3 3 2 4 4 5 6 3 1 2 5 6 6 3 4 5 5 5 4 4 3 3 3 3 3 5 5 5 5 5 4 4 5 5 5 5 5 6 6 6 6 6 6 6 7 8 6
4 4 3 5 4 5 2 6 5 2 4 6 7 6 6 6 6 6 5 6 6 4 5 4 4 4 4 4 4 5 4 4 4 4 4 5 5 5 5 5 6 6 6 6 6 8 8 9 8
1 5 5 5 5 4 3 7 3 4 2 7 8 7 4 5 5 6 7 5 5 6 5 5 4 5 5 5 5 5 4 4 4 4 5 5 5 5 5 5 6 6 7 6 8 8 7 8 8
Wind_Direction
324 331 78 46 59 67 77 223 36 134 97 352 77 130 154 77 145 192 333 165 132 138 149 155 144 135 130 125 124 122 120 117 107 150 125 105 93 84 82 80 84 85 74 65 60 54 77 77 73
318 6 45 81 85 79 260 263 169 186 144 134 79 65 41 90 95 104 109 174 142 142 144 148 144 139 142 139 137 137 134 127 109 99 120 120 112 98 99 89 84 92 73 62 47 45 73 75 70
341 28 82 91 108 161 177 206 166 135 146 2 96 66 105 121 58 171 197 138 131 139 145 154 154 151 153 152 148 145 142 136 125 127 138 133 131 116 108 96 94 92 76 53 48 39 101 94 75
31 12 40 82 142 181 173 175 154 138 257 55 129 70 358 232 162 188 137 132 136 151 158 162 165 165 164 163 163 157 155 158 151 159 166 199 170 160 146 118 98 92 81 65 56 45 81 90 66
31 57 62 75 42 199 237 159 145 158 136 121 140 148 57 346 63 131 139 145 153 158 164 165 173 172 171 172 173 173 170 174 190 203 239 214 275 172 170 172 134 107 106 101 84 67 55 49 43
41 87 65 152 218 239 131 161 139 148 146 154 83 108 209 327 122 167 146 160 155 157 162 167 185 181 176 176 178 180 183 191 197 224 271 200 136 171 195 216 221 217 221 168 137 122 97 327 320
97 75 147 151 177 141 173 152 161 162 145 206 158 122 268 292 192 152 160 139 140 137 154 167 181 197 190 186 186 186 191 198 203 209 133 53 345 240 276 264 246 243 248 245 241 245 253 275 284
98 88 102 162 198 211 178 166 149 151 186 101 175 164 198 207 148 118 115 140 144 153 165 180 183 193 204 205 203 201 203 202 208 216 217 220 301 303 316 320 280 265 266 246 248 237 253 272 283
117 65 156 207 156 262 137 139 41 53 117 207 176 160 159 140 125 115 109 111 148 184 194 189 195 203 205 211 218 219 218 207 210 223 234 243 242 275 289 281 282 283 297 286 257 242 243 270 288
78 105 210 188 181 174 272 158 164 140 130 293 242 340 112 130 142 149 162 183 200 215 213 200 204 206 203 212 212 217 222 215 203 211 229 228 238 250 259 274 280 284 287 283 281 283 274 278 281
134 179 188 121 95 189 258 145 190 125 244 216 197 176 162 144 154 166 187 189 212 215 207 205 206 200 202 208 202 205 215 218 229 198 201 222 230 243 243 261 268 261 264 258 270 288 286 279 264
138 254 177 7 353 127 173 331 177 190 227 310 209 161 157 158 170 181 194 209 209 218 235 225 210 199 209 194 201 202 204 209 228 226 211 186 197 228 232 226 238 232 229 251 237 242 256 260 249
163 180 90 114 49 60 141 101 245 240 335 334 128 141 168 170 180 195 205 228 241 247 267 248 226 214 210 204 202 204 214 206 220 232 229 204 219 210 210 229 232 246 226 229 233 228 238 243 249
153 89 30 23 64 55 143 201 62 91 6 77 143 174 186 183 198 197 202 234 214 226 222 39 53 347 223 217 207 214 210 223 215 228 233 222 217 226 211 211 220 222 214 224 231 230 239 241 234
72 95 1 260 183 25 23 271 231 109 39 105 135 180 211 232 224 322 351 123 182 66 64 39 42 26 34 343 266 237 230 216 225 232 230 231 233 235 218 231 236 228 211 214 219 235 238 239 232
86 51 128 311 120 301 108 256 172 231 167 190 193 237 254 205 30 20 36 88 69 79 59 37 25 20 17 15 357 335 303 283 272 261 267 252 248 243 247 244 247 283 247 228 217 235 253 241 236
357 204 203 319 198 147 156 245 243 131 166 207 227 238 239 205 76 41 41 61 62 61 48 34 26 16 354 350 351 17 42 45 38 37 36 26 21 350 350 7 350 339 295 302 280 261 245 295 262
184 175 225 231 320 115 196 253 271 237 222 223 225 237 233 200 192 114 64 56 66 58 51 36 24 15 351 353 40 66 76 54 42 32 31 29 22 20 57 45 9 9 0 13 353 332 310 280 306
131 128 181 236 277 188 236 261 262 275 286 265 246 237 231 208 151 116 77 43 73 42 41 30 19 3 13 17 30 72 71 65 56 45 32 32 24 18 34 53 22 20 35 30 14 332 326 323 358
116 126 234 266 16 170 322 279 269 239 240 220 233 225 218 164 164 154 135 74 61 61 35 28 22 10 4 347 315 91 104 76 73 56 33 28 31 23 40 34 27 21 15 31 24 18 343 333 21
144 157 174 144 354 46 340 286 276 285 247 248 242 233 190 190 177 169 151 102 71 54 30 28 13 4 2 345 337 73 99 85 82 40 35 18 37 34 35 33 29 27 23 34 31 16 25 337 357
192 207 147 122 67 243 39 288 303 290 295 259 253 242 205 172 131 136 146 127 104 67 44 35 22 17 11 360 38 198 132 137 73 79 60 43 39 43 38 34 34 41 33 38 28 29 30 18 30
223 148 149 111 98 34 302 292 271 318 285 280 192 106 94 148 146 149 147 132 101 75 53 36 36 28 14 19 24 63 69 73 82 61 63 36 41 39 36 34 34 40 37 39 43 36 36 31 68
154 83 51 50 68 324 226 186 276 245 244 322 343 127 117 116 110 111 105 111 97 78 63 48 48 33 24 35 34 55 78 86 79 47 52 40 38 29 30 30 35 36 39 40 42 46 50 55 63
125 104 22 355 247 229 328 197 247 266 290 302 246 152 121 121 126 134 141 133 129 116 75 71 59 47 37 51 49 55 71 75 82 63 44 36 27 25 22 27 30 27 32 39 42 51 50 43 53
174 142 155 202 196 263 103 239 250 192 14 356 96 122 114 124 146 158 155 153 175 188 154 109 89 72 50 55 58 55 59 69 70 72 72 67 62 53 37 43 42 36 39 41 43 51 60 54 56
177 176 151 103 28 48 223 284 298 127 38 52 104 118 153 173 177 184 177 191 195 197 206 165 117 94 78 77 71 59 61 63 72 64 59 60 47 69 50 45 46 37 38 43 44 50 56 58 48
152 151 111 2 162 259 285 273 246 5 74 84 120 163 189 179 190 204 205 211 211 207 195 167 146 134 119 99 84 77 76 79 75 76 69 72 65 58 53 49 46 43 42 40 53 50 44 60 53
146 173 139 130 140 174 266 259 218 268 271 182 189 195 189 196 208 217 223 215 209 198 192 182 169 149 128 110 104 105 98 86 82 79 75 75 76 69 62 57 57 51 46 39 61 66 55 64 60
287 180 146 131 205 232 157 273 2 303 331 152 169 186 190 215 219 217 221 213 206 212 201 195 184 172 163 146 136 131 121 110 99 89 85 92 92 73 70 64 67 62 60 53 64 71 63 68 64